Regional Weather Roundup
Issued by NWS Lake Charles, LA

Home | Current Version | Previous Version | Text Only | Print | Product List | Glossary On
Versions: 1 2 3 4 5 6 7 8 9 10 11 12 13 14 15 16 17 18 19 20 21 22 23 24 25
000
ASUS44 KLCH 291610
RWRLCH
REGIONAL WEATHER ROUNDUP
NATIONAL WEATHER SERVICE LAKE CHARLES LA
1100 AM CDT THU JUN 29 2017

Note: "fair" indicates few or no clouds below 12,000 feet with no
significant weather and/or obstructions to visibility.


ACROSS SOUTHEAST TEXAS

CITY           SKY/WX    TMP DP  RH WIND       PRES   REMARKS
BEAUMONT       PTSUNNY   81  77  88 S3        29.92F
BEAUMONT CITY  RAIN     N/A N/A N/A MISG      29.93R
ORANGE         CLOUDY    79  79  99 SW6       29.94S
JASPER           N/A     83  76  78 SW5       29.94F
$$

ACROSS CENTRAL LOUISIANA

CITY           SKY/WX    TMP DP  RH WIND       PRES   REMARKS
LEESVILLE      CLOUDY    79  73  79 S10       29.93S
FULLERTON      CLOUDY    79  74  84 VRB5      29.92S
ALEXANDRIA INT LGT RAIN  77  74  90 S16G32    29.93S FOG
ESLER FIELD    CLOUDY    81  77  88 VRB5      29.95F
DERIDDER       CLOUDY    77  76  95 E6        29.96S
OAKDALE        TSTM      74  73  96 CALM      29.95F
OPELOUSAS      PTSUNNY   81  76  86 S3        29.96R
$$

ACROSS SOUTHWEST AND SOUTH CENTRAL LOUISIANA

CITY           SKY/WX    TMP DP  RH WIND       PRES   REMARKS
SULPHUR        CLOUDY    77  77  99 CALM      29.93F
LAKE CHARLES   CLOUDY    75  73  93 NW3       29.92F
CHENNAULT INT  NOT AVBL
CAMERON PHI    NOT AVBL
DEQUINCY       FAIR      76  74  96 S3        29.93F
JENNINGS       TSTM      74  74  98 N12       29.94S VSB 3/4
LAFAYETTE      LGT RAIN  78  76  93 S8        29.96S
NEW IBERIA     HVY RAIN  76  73  91 S10       29.98R VSB 1
ABBEVILLE      RAIN      77  77 100 S9G18     29.96R
PATTERSON      LGT RAIN  75  74  96 SE7       30.00R
SALT POINT       N/A     78  75  90 VRB5      29.98R
$$

SELECTED SITES ACROSS THE REGION

CITY           SKY/WX    TMP DP  RH WIND       PRES   REMARKS
HOUSTON BUSH   PTSUNNY   86  74  67 VRB7      29.89F
HOUSTON HOBBY  CLOUDY    86  75  69 SW10      29.90S
GALVESTON      TSTM      79  78  97 S17       29.93R VSB 1
COLLEGE STAT   PTSUNNY   83  74  74 S8        29.90S
CONROE         PTSUNNY   84  75  74 CALM      29.90F
HUNTSVILLE     PTSUNNY   84  72  67 VRB5      29.92S
LUFKIN         CLOUDY    81  74  79 S7        29.92S
SHREVEPORT     CLOUDY    82  74  76 S7        29.93S
MONROE         LGT RAIN  78  72  81 S6        29.97F
NATCHEZ MS     CLOUDY    79  73  82 S7        29.99F
BATON ROUGE    CLOUDY    78  75  90 SE9       30.00R
N.O. INTL ARPT LGT RAIN  80  76  87 S10G25    30.01S FOG
SLIDELL        CLOUDY    80  74  81 SE7       30.02S
$$

MARINE REPORTS

STATION/POSITION TIME  SKY/WX   TEMP    WIND        PRES    VSBY
                                AIR SEA DIR/SP/G
                 (UTC)          (F)     (DEG/KT/KT) (MB)    (MI)
BUOY 30 S HIGH I 1450            80 83  200/ 17/ 21 1012.6
WVE H/P(F/S)=  5/ 6

SEA RIM ST PARK  1500            80     190/ 11/ 16 1014.2R
PORT ARTHUR      1548            80 83  220/  8/ 12 1013.2F
SABINE PASS N    1548            81 84  210/  8/ 18 1014.3F
TEXAS POINT      NOT AVBL
CALCASIEU PASS   1548            80 82  230/ 16/ 19   N/A
LK CHARLES BEACH 1548            75 79              1013.8F
MARSH ISLAND     1500            79                   N/A
FRESH WATER LOCK 1512            79 81  160/ 21/ 24 1014.4
AMERADA PASS     1548            78 80  170/  5/ 12 1015.7R
$$




USA.gov is the U.S. government's official web portal to all federal, state and local government web resources and services.